AirNav   TITAN Aviation Fuels
 
 1419 users online  

21NH Propwash Airport
Kensington, New Hampshire, USA

GOING TO KENSINGTON?


FAA INFORMATION EFFECTIVE 02 DECEMBER 2021

Location

FAA Identifier: 21NH
Lat/Long: 42-55-01.0000N 070-56-07.0000W
42-55.016667N 070-56.116667W
42.9169444,-70.9352778
(estimated)
Elevation: 190 ft. / 58 m (estimated)
From city: 1 mile SE of KENSINGTON, NH
Time zone: UTC -5 (UTC -4 during Daylight Saving Time)
Zip code: 03833

Airport Operations

Airport use: Private use. Permission required prior to landing
Activation date: 03/2004
Control tower: no
ARTCC: BOSTON CENTER
FSS: BANGOR FLIGHT SERVICE STATION
Attendance: UNATNDD
Segmented circle: no

Airport Communications

WX ASOS at LWM (15 nm SW): PHONE 978-687-8017
WX ASOS at BVY (20 nm S): 119.2 (978-921-5042)

Nearby radio navigation aids

VOR radial/distance  VOR name  Freq  Var
MHTr096/19.3MANCHESTER VOR/DME114.4015W
CONr138/33.4CONCORD VOR/DME112.9015W
ENEr222/33.6KENNEBUNK VOR/DME117.1017W
BOSr020/33.7BOSTON VOR/DME112.7016W

 
NDB name  Hdg/Dist  Freq  Var  ID
ROLLINS210/18.826016WESG . ... --.

Airport Services

Runway Information

Runway 13/31

Dimensions: 1450 x 80 ft. / 442 x 24 m
Surface: turf
RUNWAY 13  RUNWAY 31
Traffic pattern: leftleft
Obstructions: 40 ft. trees, 1000 ft. from runway50 ft. trees, 1000 ft. from runway

Airport Ownership and Management from official FAA records

Ownership: Privately-owned
Owner: GEERT FRANK
21 COTTAGE ROAD
KENSINGTON, NH 03833-6727
Phone 603-772-4635
Manager: GEERT FRANK
21 COTTAGE ROAD
KENSINGTON, NH 03833-6727
Phone 603-772-4635

Additional Remarks

FOR CD CTC BOSTON APCH AT 603-594-5551.

Instrument Procedures

There are no published instrument procedures at 21NH.

Some nearby airports with instrument procedures:

KPSM - Portsmouth International Airport at Pease (11 nm NE)
KLWM - Lawrence Municipal Airport (15 nm SW)
3B4 - Littlebrook Air Park (15 nm NE)
KBVY - Beverly Regional Airport (20 nm S)
KMHT - Manchester Boston Regional Airport (22 nm W)
 
Loc | Ops | Rwys | IFR | FBO | Links
Com | Nav | Svcs | Stats | Notes
Area around 21NH (Propwash Airport)
 
Road maps at: MapQuest Bing Google
 
Aerial photo
No photo
 
Sectional chart

 
Airport distance calculator
Flying to Propwash Airport? Find the distance to fly.

From to 21NH

Sunrise and sunset
Times for 03-Dec-2021
 Local
(UTC-5)
 Zulu
(UTC)
Morning civil twilight06:2611:26
Sunrise06:5811:58
Sunset16:0921:09
Evening civil twilight16:4121:41

Current date and time
Zulu (UTC)  03-Dec-2021 19:48:26
Local (UTC-5)  03-Dec-2021 14:48:26
 
METAR
KPSM 
10nm NE 
031856Z 30013G21KT 10SM FEW050 04/M13 A2979 RMK AO2A PK WND 31031/20 SLP091 T00371127
KLWM 
15nm SW 
031854Z 27014G22KT 10SM CLR 04/M09 A2981 RMK AO2 SLP096 T00391089
KBVY 
20nm S 
031853Z 31014G22KT 10SM CLR 04/M09 A2979 RMK AO2 PK WND 29029/1816 SLP083 T00441089
TAF
KPSM 
10nm NE 
031730Z 0318/0418 29017G30KT P6SM SCT050 FM040000 29010KT P6SM SKC
NOTAMs
Click for the latest NOTAMs
NOTAMs are issued by the DoD/FAA and will open in a separate window not controlled by AirNav.

 

 
 

Would you like to see your business listed on this page?

 If your business provides an interesting product or service to pilots, flight crews, aircraft, or users of the Propwash Airport, you should consider listing it here.  To start the listing process, click on the button below
 
Add a business
 

Other Pages about Propwash Airport

Update a link
 
Copyright © AirNav, LLC. All rights reserved. Privacy Policy  Contact